Regional Weather Roundup
Issued by NWS

Home | Current Version | Previous Version | Text Only | Print | Product List | Glossary Off
Versions: 1 2 3 4 5 6 7 8 9 10 11 12 13 14 15 16 17 18 19 20 21 22 23 24 25 26 27 28 29 30 31 32 33 34 35 36 37 38 39 40 41 42 43 44 45 46 47 48 49 50

000
ASUS43 KBIS 300710
RWRND

NORTH DAKOTA REGIONAL WEATHER ROUNDUP
NATIONAL WEATHER SERVICE BISMARCK ND
200 AM CDT SUN AUG 30 2015

NOTE: "FAIR" INDICATES FEW OR NO CLOUDS BELOW 12,000 FEET WITH NO
SIGNIFICANT WEATHER AND/OR OBSTRUCTIONS TO VISIBILITY.


NDZ001>003-009>011-017-300800-
NORTHWEST NORTH DAKOTA

CITY           SKY/WX    TMP DP  RH WIND       PRES   REMARKS
WILLISTON      MOCLDY    65  53  65 CALM      29.71F HAZE
MINOT          CLOUDY    80  60  50 S7        29.73S
MINOT AFB      CLOUDY    68  61  79 CALM      29.72F
$$

NDZ018>021-031>035-040>046-300800-
SOUTHWEST NORTH DAKOTA

CITY           SKY/WX    TMP DP  RH WIND       PRES   REMARKS
BISMARCK       MOCLDY    66  63  90 SE8       29.80S
DICKINSON      PTCLDY    65  53  65 S8        29.78
GARRISON         N/A     69  62  78 S3        29.77F
HETTINGER ARPT PTCLDY    70  53  54 SE8       29.83F
$$

NDZ004>008-012>016-024-026-027-054-300800-
NORTHEAST NORTH DAKOTA

CITY           SKY/WX    TMP DP  RH WIND       PRES   REMARKS
GRAND FORKS    PTCLDY    68  66  93 S9        29.78F
GRND FRKS AFB  PTCLDY    69  68  97 S9        29.78F
DEVILS LAKE    CLOUDY    70  63  78 E7        29.78S
$$

NDZ022-023-025-028>030-036>039-047>053-300800-
SOUTHEAST NORTH DAKOTA

CITY           SKY/WX    TMP DP  RH WIND       PRES   REMARKS
FARGO          PTCLDY    68  64  87 S12       29.84F
JAMESTOWN      PTCLDY    70  68  93 S13       29.82F
$$




USA.gov is the U.S. government's official web portal to all federal, state and local government web resources and services.